Tracking 18850 objects as of 22-Nov-2017
HD Live streaming from Space Station
objects crossing your sky now

FENGYUN 1C DEB

Track FENGYUN 1C DEB now!
10-day predictions


NORAD ID: 38498
Int'l Code: 1999-025ESH
Perigee: 861.3 km
Apogee: 1,738.7 km
Inclination: 99.7 °
Period: 111.4 minutes
Semi major axis: 7671 km
RCS: 0.015 m2 (small)
Launch date: May 10, 1999
Source: People's Republic of China (PRC)
Launch site: Taiyaun Space Center, China (TSC)

Note: This is SATELLITE DEBRIS
aabbcc
Your satellite tracking list
Your tracking list is empty




NASA's NSSDC Master Catalog

Two Line Element Set (TLE):
1 38498U 99025ESH 17301.07162567  .00000200  00000-0  42904-3 0  9997
2 38498  99.7357 246.7852 0571912 294.9124  59.3588 12.92178827378849
Source of the keplerian elements: AFSPC